User: anonymous   Login
Location: Mainz-Finthen
(49.9906°N, 8.1713°E)
Time: 20:25:48
(UTC+00:00)
Language:

BlueWalker 3 - Orbit

View from above orbital plane
View from above orbital plane
View from above satellite
View from above satellite

Ground track
Ground track

The orbit data is extracted from the following two-line orbital elements,

1 53807U 22111AL  24113.25514795  .00013652  00000-0  54873-3 0  9996
2 53807  53.2388  91.2027 0007379 298.6755  61.3502 15.25213451 89691
Epoch (UTC): 22 April 2024 06:07:24
Eccentricity: 0.0007379
inclination: 53.2388°
perigee height: 485 km
apogee height: 495 km
right ascension of ascending node: 91.2027°
argument of perigee: 298.6755°
revolutions per day: 15.25213451
mean anomaly at epoch: 61.3502°
orbit number at epoch: 8969

The dashed part of the orbit path shows where the satellite is in the earth's shadow,  

DLR